TimeIST,TemperatureF,Dew PointF,Humidity,Sea Level PressureIn,VisibilityMPH,Wind Direction,Wind SpeedMPH,Gust SpeedMPH,PrecipitationIn,Events,Conditions,WindDirDegrees,DateUTC
2:30 AM,91,52,17,29.54,2,NNW,9.2,,,,,330,2013-05-11 21:00:00
5:30 AM,87,54,22,29.60,2,NNW,5.8,,,,,330,2013-05-12 00:00:00
6:10 AM,87.8,50.0,27,29.77,3.7,NNE,3.5,-,N/A,,Scattered Clouds,20,2013-05-12 00:40:00
7:10 AM,91.4,51.8,26,29.80,3.7,NW,3.5,-,N/A,,Scattered Clouds,310,2013-05-12 01:40:00
8:10 AM,95.0,51.8,23,29.83,3.7,North,8.1,-,N/A,,Scattered Clouds,350,2013-05-12 02:40:00
8:30 AM,92,54,18,29.67,2,ENE,11.5,,,,,60,2013-05-12 03:00:00
9:10 AM,96.8,51.8,22,29.83,3.7,NNW,10.4,-,N/A,,Scattered Clouds,330,2013-05-12 03:40:00
10:10 AM,98.6,53.6,22,29.83,3.7,North,10.4,-,N/A,,Scattered Clouds,350,2013-05-12 04:40:00
11:10 AM,102.2,51.8,18,29.83,3.7,NNW,8.1,-,N/A,,Scattered Clouds,340,2013-05-12 05:40:00
11:30 AM,96,53,15,29.64,2,NE,13.8,,,,,40,2013-05-12 06:00:00
12:10 PM,104.0,50.0,16,29.80,5.0,North,6.9,-,N/A,,Scattered Clouds,360,2013-05-12 06:40:00
1:10 PM,105.8,48.2,14,29.77,5.0,ENE,5.8,-,N/A,,Scattered Clouds,60,2013-05-12 07:40:00
2:30 PM,99,51,12,29.56,2,North,5.8,,,,,0,2013-05-12 09:00:00
3:10 PM,100.4,48.2,17,29.74,3.7,NNW,11.5,-,N/A,,Mostly Cloudy,330,2013-05-12 09:40:00
4:10 PM,98.6,48.2,18,29.74,3.7,NW,9.2,-,N/A,,Mostly Cloudy,310,2013-05-12 10:40:00
5:10 PM,-9999,-9999,N/A,29.74,3.7,Calm,Calm,-,N/A,,Mostly Cloudy,0,2013-05-12 11:40:00
5:30 PM,96,50,13,29.54,2,NNW,4.6,,,,,330,2013-05-12 12:00:00
6:10 PM,98.6,48.2,18,29.74,3.7,East,3.5,-,N/A,,Scattered Clouds,80,2013-05-12 12:40:00
8:10 PM,96.8,48.2,19,29.77,3.1,SE,4.6,-,N/A,,Haze,130,2013-05-12 14:40:00
8:30 PM,92,53,17,29.61,2,ESE,5.8,,,,,110,2013-05-12 15:00:00
9:10 PM,95.0,51.8,23,29.77,3.1,East,6.9,-,N/A,,Haze,90,2013-05-12 15:40:00
11:30 PM,87,61,31,29.64,2,SE,8.1,,,,,130,2013-05-12 18:00:00